| time (UTC) | temp F | wind direction | speed MPH | gust MPH | rain 1hr in | rain 24hr in | rain mn in | humidity % | barometer mb |
| 20260507130110 | 62 | 0 | 0.0 | 0.0 | 0.00 | 0.00 | 0.00 | 33 | 1014.4 |
| 20260507124605 | 63 | 0 | 0.0 | 0.0 | 0.00 | 0.00 | 0.00 | 32 | 1014.3 |
| 20260507123057 | 62 | 0 | 0.0 | 1.0 | 0.00 | 0.00 | 0.00 | 33 | 1014.1 |
| 20260507121550 | 61 | 0 | 0.0 | 1.0 | 0.00 | 0.00 | 0.00 | 35 | 1014.1 |
| 20260507120053 | 59 | 0 | 0.0 | 1.0 | 0.00 | 0.00 | 0.00 | 37 | 1014.1 |
| 20260507114551 | 59 | 0 | 0.0 | 0.0 | 0.00 | 0.00 | 0.00 | 37 | 1014.2 |
| 20260507113048 | 59 | 0 | 0.0 | 1.0 | 0.00 | 0.00 | 0.00 | 37 | 1014.2 |
| 20260507111548 | 58 | 0 | 0.0 | 1.0 | 0.00 | 0.00 | 0.00 | 37 | 1014.3 |
| 20260507110051 | 59 | 0 | 0.0 | 0.0 | 0.00 | 0.00 | 0.00 | 36 | 1014.4 |
| 20260507104551 | 61 | 0 | 0.0 | 0.0 | 0.00 | 0.00 | 0.00 | 34 | 1014.5 |
| 20260507103053 | 62 | 0 | 0.0 | 0.0 | 0.00 | 0.00 | 0.00 | 32 | 1014.4 |
| 20260507101551 | 64 | 0 | 0.0 | 1.0 | 0.00 | 0.00 | 0.00 | 30 | 1014.6 |
| 20260507100050 | 64 | 0 | 0.0 | 3.0 | 0.00 | 0.00 | 0.00 | 30 | 1014.7 |
| 20260507094554 | 64 | 0 | 0.0 | 3.0 | 0.00 | 0.00 | 0.00 | 30 | 1014.7 |
| 20260507093052 | 64 | 0 | 0.0 | 2.0 | 0.00 | 0.00 | 0.00 | 30 | 1014.8 |
| 20260507091549 | 64 | 0 | 0.0 | 3.0 | 0.00 | 0.00 | 0.00 | 30 | 1014.8 |
| 20260507090051 | 63 | 0 | 0.0 | 4.0 | 0.00 | 0.00 | 0.00 | 31 | 1015.0 |
| 20260507084554 | 63 | 0 | 0.0 | 3.0 | 0.00 | 0.00 | 0.00 | 32 | 1015.2 |
| 20260507083055 | 62 | 0 | 0.0 | 4.0 | 0.00 | 0.00 | 0.00 | 33 | 1015.2 |
| 20260507081547 | 60 | 0 | 0.0 | 0.0 | 0.00 | 0.00 | 0.00 | 35 | 1015.3 |
| 20260507080114 | 60 | 0 | 0.0 | 1.0 | 0.00 | 0.00 | 0.00 | 34 | 1015.3 |
| 20260507074602 | 61 | 0 | 0.0 | 0.0 | 0.00 | 0.00 | 0.00 | 33 | 1015.4 |
| 20260507073058 | 61 | 0 | 0.0 | 0.0 | 0.00 | 0.00 | 0.00 | 33 | 1015.4 |
| 20260507071601 | 62 | 0 | 0.0 | 1.0 | 0.00 | 0.00 | 0.00 | 33 | 1015.4 |
| 20260507070049 | 62 | 0 | 0.0 | 1.0 | 0.00 | 0.00 | 0.00 | 32 | 1015.5 |
| 20260507064554 | 63 | 0 | 0.0 | 1.0 | 0.00 | 0.00 | 0.00 | 32 | 1015.5 |
| 20260507063055 | 63 | 0 | 0.0 | 1.0 | 0.00 | 0.00 | 0.00 | 32 | 1015.5 |
| 20260507061553 | 63 | 0 | 0.0 | 2.0 | 0.00 | 0.00 | 0.00 | 31 | 1015.5 |
| 20260507060049 | 64 | 0 | 0.0 | 2.0 | 0.00 | 0.00 | 0.00 | 31 | 1015.4 |
| 20260507054552 | 65 | 0 | 0.0 | 1.0 | 0.00 | 0.00 | 0.00 | 30 | 1015.4 |
| 20260507053052 | 65 | 0 | 0.0 | 2.0 | 0.00 | 0.00 | 0.00 | 30 | 1015.4 |
| 20260507051552 | 66 | 0 | 0.0 | 1.0 | 0.00 | 0.00 | 0.00 | 30 | 1015.4 |
| 20260507050055 | 67 | 0 | 0.0 | 1.0 | 0.00 | 0.00 | 0.00 | 29 | 1015.3 |
| 20260507044551 | 67 | 0 | 0.0 | 3.0 | 0.00 | 0.00 | 0.00 | 28 | 1015.2 |
| 20260507043046 | 67 | 0 | 0.0 | 4.0 | 0.00 | 0.00 | 0.00 | 28 | 1015.1 |
| 20260507041559 | 68 | 0 | 0.0 | 4.0 | 0.00 | 0.00 | 0.00 | 28 | 1014.9 |
| 20260507040059 | 68 | 0 | 0.0 | 2.0 | 0.00 | 0.00 | 0.00 | 28 | 1014.7 |
| 20260507034559 | 69 | 0 | 0.0 | 1.0 | 0.00 | 0.00 | 0.00 | 27 | 1014.4 |
| 20260507033056 | 70 | 0 | 0.0 | 1.0 | 0.00 | 0.00 | 0.00 | 26 | 1014.3 |
| 20260507031556 | 71 | 0 | 0.0 | 1.0 | 0.00 | 0.00 | 0.00 | 26 | 1014.0 |
| 20260507030054 | 72 | 0 | 0.0 | 1.0 | 0.00 | 0.00 | 0.00 | 25 | 1013.8 |
| 20260507024555 | 73 | 244 | 0.0 | 3.0 | 0.00 | 0.00 | 0.00 | 24 | 1013.7 |
| 20260507023054 | 74 | 0 | 0.0 | 2.0 | 0.00 | 0.00 | 0.00 | 23 | 1013.6 |
| 20260507021555 | 75 | 0 | 0.0 | 4.0 | 0.00 | 0.00 | 0.00 | 22 | 1013.5 |
| 20260507020101 | 76 | 261 | 0.0 | 4.0 | 0.00 | 0.00 | 0.00 | 22 | 1013.2 |
| 20260507014602 | 77 | 0 | 0.0 | 8.0 | 0.00 | 0.00 | 0.00 | 21 | 1013.3 |
| 20260507013055 | 78 | 0 | 0.0 | 8.0 | 0.00 | 0.00 | 0.00 | 20 | 1013.1 |
| 20260507011601 | 79 | 0 | 1.0 | 7.0 | 0.00 | 0.00 | 0.00 | 20 | 1013.0 |
| 20260507010055 | 79 | 293 | 3.0 | 10.0 | 0.00 | 0.00 | 0.00 | 19 | 1012.9 |
| 20260507004553 | 79 | 277 | 2.0 | 12.0 | 0.00 | 0.00 | 0.00 | 19 | 1012.9 |
| 20260507003051 | 80 | 275 | 3.0 | 8.0 | 0.00 | 0.00 | 0.00 | 19 | 1012.9 |
| 20260507001613 | 80 | 234 | 0.0 | 11.0 | 0.00 | 0.00 | 0.00 | 19 | 1012.8 |
| 20260507000058 | 81 | 252 | 2.0 | 14.0 | 0.00 | 0.00 | 0.00 | 19 | 1012.8 |
| 20260506234554 | 80 | 202 | 0.0 | 8.0 | 0.00 | 0.00 | 0.00 | 19 | 1012.8 |
| 20260506233052 | 81 | 215 | 0.0 | 6.0 | 0.00 | 0.00 | 0.00 | 18 | 1013.0 |
| 20260506231548 | 80 | 0 | 0.0 | 7.0 | 0.00 | 0.00 | 0.00 | 19 | 1013.1 |
| 20260506230057 | 81 | 210 | 2.0 | 8.0 | 0.00 | 0.00 | 0.00 | 19 | 1013.2 |
| 20260506224554 | 80 | 254 | 1.0 | 8.0 | 0.00 | 0.00 | 0.00 | 19 | 1013.4 |
| 20260506223050 | 81 | 0 | 0.0 | 8.0 | 0.00 | 0.00 | 0.00 | 19 | 1013.4 |
| 20260506221549 | 80 | 0 | 1.0 | 9.0 | 0.00 | 0.00 | 0.00 | 20 | 1013.6 |
| 20260506214549 | 79 | 0 | 1.0 | 9.0 | 0.00 | 0.00 | 0.00 | 21 | 1013.8 |
| 20260506213101 | 79 | 167 | 1.0 | 11.0 | 0.00 | 0.00 | 0.00 | 21 | 1013.9 |
| 20260506211551 | 79 | 153 | 2.0 | 10.0 | 0.00 | 0.00 | 0.00 | 21 | 1014.2 |
| 20260506210121 | 78 | 304 | 4.0 | 9.0 | 0.00 | 0.00 | 0.00 | 21 | 1014.5 |
| 20260506204552 | 78 | 74 | 0.0 | 8.0 | 0.00 | 0.00 | 0.00 | 22 | 1014.8 |
| 20260506203137 | 78 | 241 | 2.0 | 13.0 | 0.00 | 0.00 | 0.00 | 22 | 1014.9 |
| 20260506201549 | 77 | 117 | 0.0 | 8.0 | 0.00 | 0.00 | 0.00 | 22 | 1014.9 |
| 20260506200054 | 77 | 267 | 2.0 | 8.0 | 0.00 | 0.00 | 0.00 | 23 | 1015.1 |
| 20260506194551 | 76 | 0 | 2.0 | 9.0 | 0.00 | 0.00 | 0.00 | 23 | 1015.3 |
| 20260506193051 | 76 | 300 | 2.0 | 10.0 | 0.00 | 0.00 | 0.00 | 23 | 1015.4 |
| 20260506191554 | 75 | 0 | 2.0 | 10.0 | 0.00 | 0.00 | 0.00 | 25 | 1015.5 |
| 20260506190053 | 74 | 202 | 3.0 | 9.0 | 0.00 | 0.00 | 0.00 | 25 | 1015.8 |
| 20260506184555 | 74 | 288 | 2.0 | 7.0 | 0.00 | 0.00 | 0.00 | 25 | 1015.9 |
| 20260506183059 | 74 | 130 | 4.0 | 10.0 | 0.00 | 0.00 | 0.00 | 25 | 1016.1 |
| 20260506181600 | 74 | 282 | 2.0 | 7.0 | 0.00 | 0.00 | 0.00 | 25 | 1016.2 |
| 20260506180057 | 73 | 138 | 3.0 | 9.0 | 0.00 | 0.00 | 0.00 | 26 | 1016.3 |
| 20260506174608 | 73 | 294 | 0.0 | 11.0 | 0.00 | 0.00 | 0.00 | 26 | 1016.3 |
| 20260506173057 | 73 | 129 | 0.0 | 6.0 | 0.00 | 0.00 | 0.00 | 27 | 1016.4 |
| 20260506171611 | 72 | 0 | 0.0 | 6.0 | 0.00 | 0.00 | 0.00 | 28 | 1016.3 |
| 20260506170104 | 71 | 109 | 0.0 | 7.0 | 0.00 | 0.00 | 0.00 | 29 | 1016.3 |
| 20260506164554 | 70 | 0 | 0.0 | 4.0 | 0.00 | 0.00 | 0.00 | 30 | 1016.2 |
| 20260506163107 | 69 | 0 | 1.0 | 6.0 | 0.00 | 0.00 | 0.00 | 31 | 1016.3 |
| 20260506161553 | 68 | 108 | 0.0 | 4.0 | 0.00 | 0.00 | 0.00 | 32 | 1016.1 |
| 20260506160053 | 66 | 116 | 0.0 | 4.0 | 0.00 | 0.00 | 0.00 | 34 | 1016.1 |
| 20260506154554 | 66 | 117 | 2.0 | 7.0 | 0.00 | 0.00 | 0.00 | 34 | 1016.2 |
| 20260506153102 | 66 | 0 | 1.0 | 4.0 | 0.00 | 0.00 | 0.00 | 35 | 1016.3 |
| 20260506151555 | 65 | 142 | 0.0 | 4.0 | 0.00 | 0.00 | 0.00 | 35 | 1016.2 |
| 20260506150052 | 65 | 80 | 1.0 | 4.0 | 0.00 | 0.00 | 0.00 | 35 | 1016.2 |
| 20260506144557 | 65 | 0 | 1.0 | 5.0 | 0.00 | 0.00 | 0.00 | 35 | 1016.1 |
| 20260506143051 | 64 | 0 | 0.0 | 3.0 | 0.00 | 0.00 | 0.00 | 37 | 1016.1 |
| 20260506141556 | 63 | 0 | 0.0 | 3.0 | 0.00 | 0.00 | 0.00 | 38 | 1016.0 |
| 20260506140049 | 59 | 0 | 0.0 | 1.0 | 0.00 | 0.00 | 0.00 | 43 | 1015.8 |
| 20260506134550 | 56 | 0 | 0.0 | 0.0 | 0.00 | 0.00 | 0.00 | 48 | 1015.7 |
| 20260506133052 | 54 | 0 | 0.0 | 1.0 | 0.00 | 0.00 | 0.00 | 51 | 1015.3 |
| 20260506131606 | 51 | 0 | 0.0 | 1.0 | 0.00 | 0.00 | 0.00 | 54 | 1015.3 |